Hourly Data Report for September 04, 2017

All times are specified in Local Standard Time (LST). Add 1 hour to adjust for Daylight Saving Time where and when it is observed.

WINNIPEG A CS
MANITOBA

49°55'00.000" N
97°14'58.000" W
238.70 m
502S001
71849
XWG

Download Data

Hourly Data (September 2017)
Hourly Data Report for September 4, 2017
Temp Definition
°C
Dew Point Temp Definition
°C
Rel Hum Definition
%
Wind Dir Definition
10's deg

Wind Spd Definition
km/h
Visibility Definition
km
Stn Press Definition
kPa
Hmdx Definition


Wind Chill Definition


Weather Definition


TIME
00:00 10.1 8.3 89 28 13   98.20     LegendNANA
01:00 9.2 8.5 95 27 13   98.22     LegendNANA
02:00 10.6 9.4 92 27 11   98.23     LegendNANA
03:00 11.6 10.3 91 26 10   98.21     LegendNANA
04:00 11.2 10.0 92 28 10   98.23     LegendNANA
05:00 12.6 11.1 91 27 14   98.24     LegendNANA
06:00 11.2 10.0 92 28 13   98.26     LegendNANA
07:00 12.3 10.7 90 29 10   98.28     LegendNANA
08:00 15.4 11.8 79 30 19   98.29     LegendNANA
09:00 18.4 9.3 55 31 32   98.32     LegendNANA
10:00 17.6 7.5 51 31 38   98.32     LegendNANA
11:00 16.3 9.3 63 32 38   98.34     LegendNANA
12:00 14.2 11.5 84 30 22   98.42     LegendNANA
13:00 17.6 7.5 52 32 40   98.43     LegendNANA
14:00 17.6 2.5 36 33 40   98.43     LegendNANA
15:00 18.0 2.5 35 33 37   98.48     LegendNANA
16:00 17.8 3.2 38 32 41   98.54     LegendNANA
17:00 17.7 2.2 35 32 43   98.59     LegendNANA
18:00 17.2 1.0 33 33 36   98.60     LegendNANA
19:00 15.4 2.7 43 32 24   98.62     LegendNANA
20:00 13.7 2.3 46 31 21   98.67     LegendNANA
21:00 12.9 2.6 50 31 19   98.71     LegendNANA
22:00 12.1 2.9 53 31 20   98.73     LegendNANA
23:00 11.6 2.1 52 30 20   98.75     LegendNANA

Notes on Data Quality.

Legend

  • E = Estimated
  • M = Missing
  • NA = Not Available
  • ‡ = Partner data that is not subject to review by the National Climate Archives
Date modified: